• In Romania
  • List of Countries
  • For 7 days
  • Water Temperature
  • Satellite Maps
  • Weather Map
  • Weather Widgets
  • user-avatar
    Login

    Hourly Weather Sopron

    Today, 23 July, Monday

    Time Temperature Precipitation Wind Pressure Humidity
    00:00 +19°C° 0.2 mm 5 mps 742 mmHg 83%
    01:00 +19°C° 0 mm 5 mps 742 mmHg 84%
    02:00 +19°C° 0.3 mm 5 mps 742 mmHg 85%
    03:00 +19°C° 0.3 mm 5 mps 742 mmHg 85%
    04:00 +19°C° 0.3 mm 5 mps 742 mmHg 85%
    05:00 +19°C° 0.5 mm 5 mps 742 mmHg 85%
    06:00 +20°C° 0.5 mm 6 mps 742 mmHg 85%
    07:00 +20°C° 0 mm 5 mps 742 mmHg 84%
    08:00 +21°C° 0.2 mm 6 mps 742 mmHg 82%
    09:00 +21°C° 0.2 mm 6 mps 743 mmHg 79%
    10:00 +21°C° 0.2 mm 6 mps 743 mmHg 76%
    11:00 +23°C° 0.1 mm 6 mps 743 mmHg 68%
    12:00 +24°C° 0.1 mm 6 mps 743 mmHg 61%
    13:00 +27°C° 0.1 mm 6 mps 743 mmHg 53%
    14:00 +27°C° 0 mm 6 mps 743 mmHg 52%
    15:00 +28°C° 0 mm 6 mps 743 mmHg 50%
    16:00 +29°C° 0 mm 6 mps 742 mmHg 49%
    17:00 +27°C° 0 mm 6 mps 743 mmHg 54%
    18:00 +26°C° 0 mm 5 mps 743 mmHg 59%
    19:00 +25°C° 0 mm 5 mps 743 mmHg 64%
    20:00 +23°C° 0 mm 5 mps 743 mmHg 67%
    21:00 +22°C° 0 mm 4 mps 744 mmHg 70%
    22:00 +21°C° 0 mm 4 mps 744 mmHg 72%
    23:00 +21°C° 0 mm 4 mps 744 mmHg 74%

    Tomorrow, 24 July, Tuesday

    Time Temperature Precipitation Wind Pressure Humidity
    00:00 +20°C° 0 mm 4 mps 744 mmHg 76%
    01:00 +20°C° 0 mm 4 mps 744 mmHg 77%
    02:00 +19°C° 0 mm 4 mps 744 mmHg 78%
    03:00 +19°C° 0 mm 4 mps 744 mmHg 79%
    04:00 +19°C° 0 mm 4 mps 744 mmHg 80%
    05:00 +20°C° 0 mm 4 mps 744 mmHg 75%
    06:00 +21°C° 0 mm 5 mps 744 mmHg 71%
    07:00 +23°C° 0 mm 5 mps 744 mmHg 66%
    08:00 +25°C° 0 mm 5 mps 744 mmHg 61%
    09:00 +27°C° 0 mm 5 mps 744 mmHg 55%
    10:00 +28°C° 0 mm 6 mps 744 mmHg 50%
    11:00 +29°C° 0 mm 5 mps 744 mmHg 47%
    12:00 +30°C° 0 mm 5 mps 743 mmHg 45%
    13:00 +30°C° 0 mm 5 mps 743 mmHg 43%
    14:00 +30°C° 0 mm 5 mps 743 mmHg 44%
    15:00 +30°C° 0 mm 5 mps 742 mmHg 44%
    16:00 +30°C° 0 mm 5 mps 742 mmHg 45%
    17:00 +29°C° 0 mm 4 mps 742 mmHg 50%
    18:00 +28°C° 0 mm 4 mps 742 mmHg 56%
    19:00 +26°C° 0 mm 3 mps 742 mmHg 62%
    20:00 +25°C° 0 mm 3 mps 743 mmHg 66%
    21:00 +24°C° 0 mm 3 mps 743 mmHg 70%
    22:00 +22°C° 0 mm 3 mps 743 mmHg 74%
    23:00 +21°C° 0 mm 3 mps 743 mmHg 75%

    Day after tomorrow, 25 July, Wednesday

    Time Temperature Precipitation Wind Pressure Humidity
    00:00 +21°C° 0 mm 3 mps 743 mmHg 77%
    01:00 +20°C° 0 mm 3 mps 743 mmHg 79%
    02:00 +20°C° 0 mm 3 mps 743 mmHg 80%
    03:00 +19°C° 0 mm 3 mps 743 mmHg 82%
    04:00 +19°C° 0 mm 3 mps 743 mmHg 83%
    05:00 +20°C° 0 mm 3 mps 743 mmHg 78%
    06:00 +22°C° 0 mm 3 mps 744 mmHg 73%
    07:00 +23°C° 0 mm 4 mps 744 mmHg 67%
    08:00 +25°C° 0 mm 4 mps 744 mmHg 61%
    09:00 +27°C° 0 mm 4 mps 744 mmHg 55%
    10:00 +29°C° 0 mm 5 mps 744 mmHg 48%
    11:00 +29°C° 0 mm 5 mps 744 mmHg 46%
    12:00 +30°C° 0 mm 5 mps 743 mmHg 43%
    13:00 +32°C° 0 mm 5 mps 743 mmHg 41%
    14:00 +32°C° 0 mm 5 mps 743 mmHg 41%
    15:00 +32°C° 0 mm 5 mps 742 mmHg 42%
    16:00 +32°C° 0 mm 5 mps 742 mmHg 43%
    17:00 +30°C° 0.1 mm 4 mps 742 mmHg 50%
    18:00 +28°C° 0.1 mm 4 mps 742 mmHg 57%
    19:00 +27°C° 0.1 mm 3 mps 743 mmHg 64%
    20:00 +26°C° 0 mm 3 mps 743 mmHg 68%
    21:00 +24°C° 0 mm 3 mps 743 mmHg 72%
    22:00 +22°C° 0 mm 3 mps 744 mmHg 76%
    23:00 +22°C° 0 mm 3 mps 744 mmHg 77%

    26 July, Thursday

    Time Temperature Precipitation Wind Pressure Humidity
    00:00 +21°C° 0 mm 3 mps 743 mmHg 78%
    01:00 +21°C° 0 mm 3 mps 743 mmHg 80%
    02:00 +21°C° 0 mm 3 mps 744 mmHg 81%
    03:00 +20°C° 0 mm 3 mps 744 mmHg 82%
    04:00 +20°C° 0 mm 3 mps 744 mmHg 83%
    05:00 +21°C° 0 mm 3 mps 744 mmHg 79%
    06:00 +22°C° 0 mm 4 mps 744 mmHg 75%
    07:00 +23°C° 0 mm 4 mps 744 mmHg 70%
    08:00 +26°C° 0.3 mm 4 mps 744 mmHg 65%
    09:00 +27°C° 0.3 mm 4 mps 744 mmHg 59%
    10:00 +28°C° 0.3 mm 4 mps 744 mmHg 53%
    11:00 +29°C° 0.2 mm 4 mps 744 mmHg 51%
    12:00 +30°C° 0.2 mm 4 mps 743 mmHg 48%
    13:00 +30°C° 0.2 mm 4 mps 743 mmHg 45%
    14:00 +30°C° 0.2 mm 4 mps 743 mmHg 45%
    15:00 +30°C° 0.2 mm 4 mps 743 mmHg 44%
    16:00 +32°C° 0.2 mm 4 mps 743 mmHg 44%
    17:00 +29°C° 0.4 mm 4 mps 743 mmHg 50%
    18:00 +28°C° 0.4 mm 3 mps 743 mmHg 57%
    19:00 +26°C° 0.4 mm 3 mps 743 mmHg 63%
    20:00 +25°C° 0.5 mm 3 mps 743 mmHg 69%
    21:00 +22°C° 0.5 mm 3 mps 743 mmHg 75%
    22:00 +21°C° 0.5 mm 3 mps 743 mmHg 81%
    23:00 +20°C° 0.4 mm 3 mps 743 mmHg 83%

    27 July, Friday

    Time Temperature Precipitation Wind Pressure Humidity
    00:00 +20°C° 0.4 mm 3 mps 743 mmHg 85%
    01:00 +20°C° 0.4 mm 3 mps 743 mmHg 87%
    02:00 +19°C° 0.3 mm 3 mps 743 mmHg 87%
    03:00 +19°C° 0.3 mm 3 mps 743 mmHg 88%
    04:00 +19°C° 0.3 mm 3 mps 743 mmHg 88%
    05:00 +20°C° 1.2 mm 3 mps 743 mmHg 86%
    06:00 +21°C° 1.2 mm 3 mps 743 mmHg 84%
    07:00 +22°C° 1.2 mm 3 mps 743 mmHg 82%
    08:00 +23°C° 0.8 mm 4 mps 743 mmHg 77%
    09:00 +26°C° 0.8 mm 4 mps 743 mmHg 72%
    10:00 +27°C° 0.8 mm 4 mps 743 mmHg 67%
    11:00 +28°C° 1.1 mm 4 mps 743 mmHg 64%
    12:00 +29°C° 1.1 mm 3 mps 743 mmHg 60%
    13:00 +30°C° 1.1 mm 3 mps 742 mmHg 56%
    14:00 +30°C° 0.6 mm 3 mps 742 mmHg 57%
    15:00 +30°C° 0.6 mm 3 mps 742 mmHg 57%
    16:00 +30°C° 0.6 mm 3 mps 742 mmHg 57%
    17:00 +29°C° 0.4 mm 3 mps 742 mmHg 62%
    18:00 +27°C° 0.4 mm 3 mps 742 mmHg 67%
    19:00 +26°C° 0.4 mm 3 mps 742 mmHg 71%
    20:00 +25°C° 0.5 mm 3 mps 742 mmHg 75%
    21:00 +24°C° 0.5 mm 3 mps 742 mmHg 79%
    22:00 +22°C° 0.5 mm 3 mps 743 mmHg 83%
    23:00 +22°C° 0.1 mm 3 mps 743 mmHg 84%

    28 July, Saturday

    Time Temperature Precipitation Wind Pressure Humidity
    00:00 +21°C° 0.1 mm 3 mps 743 mmHg 84%
    01:00 +21°C° 0.1 mm 3 mps 742 mmHg 84%
    02:00 +21°C° 0.2 mm 3 mps 742 mmHg 84%
    03:00 +20°C° 0.2 mm 3 mps 742 mmHg 84%
    04:00 +20°C° 0.2 mm 3 mps 742 mmHg 85%
    05:00 +21°C° 0.5 mm 3 mps 742 mmHg 82%
    06:00 +22°C° 0.5 mm 4 mps 743 mmHg 80%
    07:00 +23°C° 0.5 mm 4 mps 743 mmHg 77%
    08:00 +25°C° 0.1 mm 4 mps 743 mmHg 71%
    09:00 +27°C° 0.1 mm 5 mps 743 mmHg 64%
    10:00 +28°C° 0.1 mm 5 mps 742 mmHg 58%
    11:00 +30°C° 0.2 mm 5 mps 742 mmHg 54%
    12:00 +32°C° 0.2 mm 5 mps 742 mmHg 51%
    13:00 +33°C° 0.2 mm 5 mps 742 mmHg 47%
    14:00 +32°C° 0 mm 5 mps 742 mmHg 48%
    15:00 +32°C° 0 mm 5 mps 742 mmHg 49%
    16:00 +32°C° 0 mm 5 mps 742 mmHg 50%
    17:00 +30°C° 0 mm 5 mps 742 mmHg 55%
    18:00 +29°C° 0 mm 4 mps 742 mmHg 61%
    19:00 +27°C° 0 mm 4 mps 742 mmHg 66%
    20:00 +26°C° 0.6 mm 4 mps 742 mmHg 69%
    21:00 +25°C° 0.6 mm 4 mps 742 mmHg 72%
    22:00 +23°C° 0.6 mm 4 mps 742 mmHg 75%
    23:00 +23°C° 1.5 mm 4 mps 742 mmHg 78%
    Show more